RH
6 6 6 6 6 6 6 6 5 5 5 5 5 5 5 5 4 4 4 4 3 3 3 3 3 3 3 4 5 6 8 10 13 16 19 20 21 24 27 30 33 36 39 41 45 47 48 47 45 43 37 32 30 28 25 24 21 36 64 67 55 36 15 11 16 25 34 39 41 41 43 43 44 44 43 44 42 37 39 48 54 57 62 66 63 59 55 53 49 42 37 32 27 23 21 19 17
5 5 5 5 5 5 5 5 5 5 5 5 5 5 5 4 4 4 4 4 3 3 3 3 3 3 3 4 5 7 9 11 14 18 20 20 22 24 26 30 35 40 44 47 48 48 49 46 45 41 35 34 32 28 24 25 23 35 60 63 54 35 14 12 19 30 40 44 46 46 46 47 47 46 44 45 45 41 42 52 58 57 62 67 68 69 69 65 59 51 43 36 31 26 22 20 18
4 4 4 4 4 4 4 4 4 4 4 4 4 4 4 4 4 4 4 4 4 3 3 3 3 3 3 4 6 8 11 13 17 20 20 21 22 23 24 30 37 44 47 49 49 47 46 43 42 37 35 36 34 30 24 25 22 32 54 61 53 32 14 16 26 36 45 48 49 49 49 50 49 48 45 44 47 45 46 56 62 60 62 67 70 74 79 80 75 63 50 41 36 31 26 23 22
3 3 3 3 3 3 3 3 3 3 4 4 4 4 4 4 4 4 4 4 4 3 3 3 3 4 4 5 6 10 14 16 20 21 22 22 23 26 29 36 42 44 45 44 44 43 41 40 38 37 38 38 38 32 26 27 23 31 52 62 51 26 14 22 35 44 50 52 52 53 53 53 50 48 44 41 48 50 49 58 66 67 67 70 71 72 78 86 87 75 59 48 40 36 32 29 27
2 2 2 2 2 2 2 2 2 3 3 4 4 4 4 4 4 4 4 4 4 3 3 3 4 3 4 6 6 12 17 20 22 21 23 25 27 34 39 43 45 44 43 42 42 41 40 39 39 39 39 39 41 35 31 30 26 36 56 63 46 21 18 31 45 52 54 55 56 56 54 54 51 48 42 35 44 53 53 61 71 75 76 73 69 67 71 81 90 85 70 56 43 40 39 34 33
2 1 1 1 1 1 1 2 2 2 3 3 4 4 4 4 4 4 4 4 4 4 3 3 4 4 5 7 7 12 17 22 25 23 27 33 37 43 47 47 47 47 45 44 43 42 41 40 40 40 40 42 39 33 35 35 33 45 63 63 38 20 29 43 52 56 57 58 58 56 54 55 52 46 41 33 39 54 57 67 78 84 85 76 70 67 69 82 93 93 82 65 48 42 42 40 38
2 2 1 1 1 1 1 1 1 2 3 4 4 5 4 4 4 4 4 4 4 4 3 4 3 4 6 8 11 15 17 23 25 27 32 40 47 50 52 51 50 49 47 46 44 43 42 40 41 42 44 41 31 34 44 41 40 54 69 57 30 29 43 51 54 56 57 57 56 55 55 54 51 44 40 31 34 54 62 75 85 85 88 79 72 70 73 85 93 94 89 73 53 44 45 45 42
2 2 2 1 1 1 1 1 1 2 4 4 5 5 5 4 4 4 4 4 4 4 4 4 3 4 7 8 15 19 21 25 27 30 33 39 48 52 53 52 51 50 49 47 45 45 43 43 43 41 39 33 31 48 56 48 50 64 68 46 34 43 48 56 58 52 51 55 55 55 54 52 50 41 35 29 33 54 65 81 88 80 84 82 75 73 72 75 81 89 92 82 59 48 51 48 44
2 2 2 2 1 1 1 1 2 3 4 5 5 6 5 4 4 4 4 4 4 4 4 4 4 5 8 9 17 23 28 31 32 34 33 37 46 49 50 51 50 50 49 46 46 45 43 43 37 30 25 28 48 68 66 59 65 68 58 42 42 47 56 72 60 40 42 51 54 53 53 50 45 34 30 28 33 56 72 88 89 76 76 79 77 73 71 73 82 94 98 88 62 54 57 47 43
2 2 2 2 2 2 1 2 3 4 5 5 6 6 4 4 4 4 4 4 4 4 4 4 5 8 12 13 21 30 36 37 36 37 37 41 46 48 49 48 47 46 46 44 44 42 39 36 26 24 27 40 67 78 72 70 71 62 50 43 45 55 69 68 41 28 39 48 51 51 50 44 35 29 29 28 37 62 78 90 93 82 77 79 80 75 74 75 87 99 98 85 63 61 61 48 45
2 2 2 2 2 2 2 3 4 4 5 7 7 5 4 4 3 4 4 4 4 5 6 7 8 11 16 19 26 36 40 42 39 38 39 42 44 43 42 42 42 41 42 41 39 35 31 26 21 28 39 57 77 77 74 72 63 52 45 43 47 62 60 36 20 25 38 46 48 47 41 34 30 31 31 31 46 68 79 90 92 82 77 82 86 86 85 76 84 98 93 82 69 70 67 56 53
2 2 2 2 2 2 2 3 4 5 6 7 7 5 5 4 4 5 4 5 5 7 9 10 13 15 20 25 31 38 41 43 40 39 41 41 39 35 33 34 34 34 34 33 29 25 22 19 23 39 55 71 80 76 72 64 54 48 44 43 45 46 33 18 18 24 34 40 41 39 37 35 35 36 35 39 58 76 83 93 95 82 73 80 90 99 98 84 90 102 91 82 77 78 75 68 62
2 2 2 2 2 2 2 4 5 6 7 7 6 5 5 4 5 5 5 6 6 14 18 16 21 23 27 32 33 37 39 39 37 39 43 40 38 33 29 28 27 26 25 23 20 17 16 20 37 59 72 79 78 74 67 57 52 47 42 39 33 27 22 19 19 25 33 36 39 42 44 44 43 40 42 55 74 84 87 97 101 88 73 77 90 100 95 85 96 103 90 82 80 82 81 74 68
2 2 2 2 2 2 3 5 5 7 7 6 6 5 5 5 6 6 5 7 10 21 29 28 33 34 36 38 35 35 36 35 33 35 37 35 33 29 26 23 20 18 16 16 14 12 18 34 61 78 83 84 80 75 65 57 52 43 36 30 25 25 23 20 23 33 38 40 47 51 54 52 47 47 51 63 73 76 87 98 95 84 78 81 89 90 80 81 95 97 87 81 80 83 82 74 68
2 2 2 2 2 3 5 6 6 7 7 6 7 6 6 6 6 7 6 10 18 26 34 40 43 43 44 41 35 34 33 30 29 30 30 28 26 23 21 16 13 11 10 11 9 15 34 60 82 90 90 88 84 76 65 56 49 38 30 25 23 23 21 24 33 40 44 48 54 57 60 57 53 56 58 62 65 68 77 83 79 77 82 82 81 79 76 85 93 87 81 79 79 81 78 68 62
2 2 2 2 2 4 6 6 8 9 8 7 7 6 7 7 6 7 7 13 26 31 35 43 44 45 44 39 36 33 30 28 26 27 25 23 21 18 15 11 8 7 8 8 9 24 56 83 94 94 94 90 83 73 61 53 45 35 28 24 22 20 21 30 39 40 44 52 57 61 63 62 61 62 62 63 66 66 67 70 74 79 83 80 77 79 83 88 87 81 76 76 77 78 74 63 57
2 2 1 2 2 5 7 7 10 11 9 8 7 7 7 7 8 8 9 13 27 35 36 39 39 40 40 37 37 33 30 27 25 24 22 21 18 14 13 10 7 7 9 9 19 47 77 94 97 94 90 83 76 67 57 50 41 31 24 21 19 18 21 28 34 37 45 55 62 66 67 68 67 65 65 64 64 65 70 79 84 87 91 88 86 91 93 86 80 78 74 75 76 75 71 62 56
2 2 1 2 4 7 8 9 13 14 10 9 8 9 7 8 10 10 15 19 26 33 34 36 36 37 39 38 37 34 30 28 24 22 20 18 16 14 13 11 8 7 11 20 43 74 91 95 93 88 83 76 71 64 57 49 37 25 18 16 16 16 17 23 33 41 50 58 63 68 70 70 69 67 64 61 63 66 72 82 85 88 94 93 91 94 91 81 76 76 75 76 75 71 67 64 59
2 2 2 4 6 8 10 10 15 18 13 10 10 11 10 11 13 15 22 26 26 31 33 33 36 37 38 38 37 34 30 27 22 19 19 17 16 14 13 12 10 9 14 29 58 84 92 90 87 82 78 74 69 64 60 53 36 21 15 14 14 13 15 25 38 46 51 58 64 69 71 71 70 65 60 60 63 67 69 74 78 83 91 94 91 87 81 75 75 79 79 74 67 62 61 63 62
2 2 3 6 8 9 11 11 17 22 16 12 13 12 13 15 17 22 29 32 32 35 34 33 36 37 35 36 36 32 28 24 19 18 17 17 16 15 15 13 16 23 22 32 61 85 90 85 80 77 75 72 69 68 68 57 34 18 14 12 12 15 21 33 41 45 51 59 66 70 72 71 66 60 59 60 61 64 65 69 74 78 83 86 83 79 77 78 81 81 73 58 48 48 55 62 63
2 2 5 8 8 10 13 11 16 25 19 15 16 15 17 20 23 25 30 36 37 37 36 35 37 35 33 33 33 29 24 22 18 17 17 16 15 14 14 18 35 47 39 45 72 84 84 80 76 71 69 71 73 77 72 51 28 16 12 11 15 22 30 40 43 47 54 60 65 69 71 67 62 60 59 58 60 61 64 69 74 77 79 78 76 78 82 84 79 64 49 38 35 39 51 61 65
2 3 6 8 8 11 13 12 19 27 25 22 20 20 21 24 29 28 29 35 35 35 34 34 34 32 32 32 32 28 23 20 17 17 17 15 14 14 18 33 56 67 57 57 78 92 92 85 76 68 71 80 85 84 67 40 21 14 11 12 19 30 40 44 45 48 53 58 65 70 69 66 63 62 59 58 58 60 65 72 76 78 78 77 79 83 82 72 54 40 33 32 33 37 45 55 65
3 4 7 8 8 12 14 13 22 28 30 31 23 25 30 31 33 30 33 36 33 33 31 29 29 29 30 30 29 25 21 18 16 17 15 13 12 11 19 41 60 69 68 58 66 90 96 85 76 77 87 93 88 74 54 35 19 13 13 14 21 34 40 40 40 44 51 61 70 72 70 67 64 61 59 56 56 59 65 69 72 72 73 77 80 73 59 43 33 30 31 33 35 37 38 46 58
3 6 8 8 9 13 15 14 21 27 35 39 26 28 41 40 35 32 38 39 35 33 30 28 26 26 26 26 25 22 19 17 18 15 9 15 23 24 21 31 44 52 61 60 65 84 87 81 85 95 99 88 72 60 54 44 24 16 18 19 25 34 35 34 37 44 57 70 75 75 72 66 62 60 56 52 52 55 58 60 62 64 68 69 60 45 34 28 27 27 31 38 43 44 42 44 53
4 7 7 8 9 14 16 13 19 28 40 45 31 34 49 47 39 38 42 40 36 35 33 30 26 24 23 22 22 20 17 18 18 12 14 25 39 58 54 41 45 51 58 61 66 83 87 86 93 98 87 72 69 72 72 56 33 28 28 26 29 31 31 34 41 54 70 79 79 75 69 63 61 58 53 50 51 52 54 57 59 61 57 45 31 27 27 25 26 30 37 46 50 51 50 50 55
6 8 7 7 9 13 16 15 18 27 41 47 38 43 54 50 45 44 44 40 36 35 34 32 26 23 21 19 20 18 17 18 16 15 30 45 53 74 76 65 70 72 71 68 66 77 86 91 94 88 74 74 84 84 77 60 44 44 39 33 32 30 32 42 55 69 80 82 78 71 64 61 60 57 54 52 52 55 57 57 55 48 35 25 24 28 26 24 31 39 45 52 57 57 56 55 57
8 10 10 10 11 13 16 18 19 22 35 46 45 50 56 51 49 48 47 42 38 35 33 31 26 23 20 18 18 18 19 19 18 17 25 45 71 86 77 80 94 91 87 87 86 86 87 93 89 76 70 77 81 73 74 74 64 60 54 42 35 32 41 58 72 79 81 78 72 66 61 60 58 57 56 56 57 56 52 47 40 30 24 26 28 27 23 27 40 48 54 59 61 60 57 58 59
9 12 13 14 14 13 16 19 21 19 26 41 44 48 54 52 51 51 49 44 40 37 34 30 27 25 22 20 20 20 23 24 24 23 15 26 68 94 87 92 100 97 97 97 98 96 93 96 89 79 77 77 70 57 62 78 78 74 69 53 41 43 54 71 80 80 77 72 66 62 59 57 57 59 62 61 55 46 36 31 27 22 24 26 24 22 22 34 48 54 60 64 64 64 60 60 58
13 14 15 18 17 15 17 19 22 20 22 33 36 37 47 53 54 52 47 42 39 36 34 31 29 28 26 24 22 22 26 27 26 27 24 23 44 71 86 97 99 98 101 97 96 96 94 92 88 89 86 78 71 55 55 77 84 81 76 61 53 56 63 73 78 77 72 66 62 58 56 56 59 62 61 51 39 31 24 23 24 24 27 24 21 21 20 37 53 54 61 64 64 65 59 58 51
19 20 20 21 20 20 21 19 21 22 21 27 29 30 37 49 56 53 46 43 40 38 37 35 34 34 31 26 23 25 25 25 26 27 32 32 34 50 70 87 99 99 94 91 90 88 82 78 81 86 75 63 66 61 66 85 89 85 79 67 62 62 66 72 74 73 67 63 58 54 56 56 54 51 42 32 27 24 22 21 23 25 29 26 23 23 19 32 47 51 59 61 60 60 54 52 47
22 23 24 24 22 24 23 21 21 23 23 23 25 26 32 45 56 55 49 47 46 45 43 41 40 37 32 25 22 23 21 22 26 28 38 45 47 58 66 73 89 93 87 86 88 85 82 80 84 87 72 59 69 73 77 89 88 84 77 67 64 64 67 71 70 69 64 60 56 55 60 50 37 34 29 26 25 23 21 20 22 24 28 26 24 27 22 23 32 42 56 60 63 62 53 50 49
24 22 26 26 23 25 25 24 23 23 24 23 23 24 28 40 52 56 53 53 52 49 47 44 40 35 27 23 20 17 18 20 23 32 48 57 58 61 62 62 70 79 82 84 87 87 88 86 82 84 75 63 72 80 84 91 88 83 76 68 68 70 71 70 67 66 62 59 57 60 60 41 28 29 27 26 23 20 19 19 21 23 25 24 23 28 25 21 23 32 48 60 66 63 55 52 52
26 25 30 30 25 25 26 26 26 24 24 24 24 24 26 32 41 49 52 57 58 54 52 46 38 30 24 26 24 17 17 17 24 44 59 62 61 55 51 52 53 58 67 72 77 79 79 75 68 74 75 64 72 84 89 93 88 82 76 71 75 76 72 68 65 65 63 62 62 63 57 40 33 33 27 25 24 19 16 17 20 21 25 25 24 27 28 25 24 26 36 51 61 61 58 54 54
30 35 38 36 31 27 26 27 26 25 25 25 25 24 24 26 30 36 42 50 56 57 55 50 42 32 29 34 28 18 18 17 31 53 57 57 63 56 50 48 44 44 49 55 62 62 59 55 55 71 82 80 85 88 86 89 85 78 74 75 81 79 72 68 68 68 67 67 66 63 53 38 35 33 28 28 26 20 16 16 17 18 25 27 25 28 29 29 29 26 27 40 53 58 59 55 56
40 45 46 42 37 31 27 27 27 26 26 25 25 25 25 24 25 26 30 36 43 49 51 51 49 40 38 39 28 19 17 19 37 51 46 49 58 56 53 50 43 39 39 41 42 42 40 40 52 72 86 94 98 91 86 88 86 77 75 82 86 81 74 71 71 71 72 71 63 53 41 30 28 25 23 24 23 20 17 16 15 17 23 24 22 26 29 31 33 29 25 31 44 55 59 57 57
41 48 50 47 43 36 30 27 27 27 26 26 26 25 25 25 24 24 25 26 30 34 37 43 47 44 43 39 26 20 18 20 36 46 42 44 51 56 55 48 42 35 30 29 27 28 31 35 51 66 79 94 98 93 88 87 88 83 83 90 89 84 79 74 73 76 76 64 48 39 33 29 29 25 23 24 22 19 17 16 16 17 18 18 18 21 24 29 35 34 28 27 35 45 54 60 61
37 40 45 48 46 39 33 29 27 27 26 26 26 25 25 24 24 24 24 24 24 23 24 30 35 37 37 32 22 19 19 21 35 45 43 40 45 57 58 48 40 32 27 24 21 25 30 36 48 56 66 84 93 93 90 89 92 93 94 96 93 87 79 73 76 80 72 54 40 37 33 29 30 29 28 27 26 25 23 20 20 20 19 18 17 18 20 25 33 36 31 27 29 37 50 62 64
32 30 34 42 44 41 38 33 28 28 26 26 26 24 24 24 23 23 23 23 22 21 20 22 23 24 25 24 20 20 19 20 32 43 42 37 42 55 60 51 41 32 27 24 22 26 31 36 45 48 50 63 76 81 88 95 94 94 98 98 92 84 76 74 80 80 65 49 43 38 28 22 21 22 24 27 29 32 33 30 27 24 22 21 20 21 21 21 28 36 36 31 29 34 47 58 60
28 25 26 34 42 41 41 39 32 28 27 26 26 25 24 23 23 22 23 23 22 21 20 19 20 20 21 21 20 20 19 20 30 38 39 42 48 58 62 53 44 36 28 25 24 25 31 35 40 45 44 48 55 59 74 89 86 83 90 96 91 78 73 79 82 76 61 49 44 33 22 18 16 15 18 22 24 27 31 30 25 22 21 22 23 24 22 19 23 33 36 31 28 33 43 50 52
29 27 24 30 40 41 40 44 40 32 30 27 26 26 24 23 23 22 23 22 22 21 20 20 20 20 21 21 21 22 20 24 36 41 44 48 55 65 66 53 46 40 29 26 25 24 29 33 36 42 45 47 47 44 59 79 83 82 87 95 95 81 77 85 86 80 66 49 38 28 21 18 16 15 15 17 18 18 20 20 19 21 23 23 23 22 21 20 22 29 33 31 31 36 44 47 49
35 31 27 30 38 41 40 43 44 40 36 32 29 27 26 25 24 24 24 23 22 21 20 20 20 20 21 21 21 22 20 28 41 46 47 50 58 69 68 54 47 40 30 26 24 24 27 31 34 39 46 52 50 45 52 69 80 86 90 97 99 91 85 88 92 88 67 42 32 30 28 25 19 17 16 16 16 15 15 16 18 22 23 23 22 20 19 19 22 27 34 40 43 46 48 46 48
39 37 36 36 38 41 41 42 45 43 40 37 34 31 28 27 25 25 25 24 22 21 20 20 21 22 21 22 22 20 22 30 39 42 46 51 62 71 66 55 46 37 30 26 23 23 25 29 36 41 45 49 52 51 52 65 80 90 96 99 100 93 88 90 91 77 52 37 40 44 42 36 29 24 21 19 18 17 17 17 19 21 21 22 21 20 19 19 19 21 28 38 46 49 48 43 41
44 44 44 42 41 43 43 43 44 43 41 41 40 37 32 29 28 27 25 25 22 21 23 25 26 26 25 25 22 22 27 34 39 43 47 55 65 71 65 54 44 34 29 25 22 22 22 29 41 45 42 41 48 52 56 72 90 98 101 99 92 84 83 88 79 57 43 45 53 58 55 47 40 34 29 26 23 21 20 19 20 20 20 20 20 20 20 20 19 18 20 24 30 35 37 33 29
49 50 48 44 43 44 45 45 43 41 40 41 42 42 37 32 32 30 26 27 25 27 34 37 38 36 34 31 26 28 38 41 43 48 53 60 66 67 61 49 39 32 27 22 21 21 20 31 48 50 42 40 47 54 61 78 92 95 97 94 84 78 82 84 67 48 48 56 62 68 67 59 49 41 36 32 28 24 22 21 22 21 21 21 20 20 20 21 21 19 18 17 18 20 21 20 18
49 49 47 46 44 44 44 44 43 41 40 39 39 40 39 34 34 33 28 29 33 38 43 44 45 46 45 42 34 38 51 49 44 47 56 66 65 59 51 41 37 33 26 21 21 20 19 32 52 57 49 47 52 58 63 73 82 86 88 86 80 81 88 82 59 48 54 62 69 75 75 67 56 48 42 36 30 27 26 24 23 22 22 21 21 20 19 19 19 18 17 16 15 15 16 17 16
46 46 46 45 44 43 43 42 41 41 38 38 36 37 38 34 33 33 27 30 38 43 45 43 46 48 48 47 40 44 55 50 43 44 50 57 54 47 41 37 40 39 30 25 23 20 22 40 59 61 54 55 60 62 60 61 71 82 86 84 84 90 91 76 56 52 61 71 79 81 77 68 59 51 44 38 32 28 27 26 24 22 20 20 19 18 17 16 16 16 16 16 16 17 19 21 22
45 45 43 42 42 42 43 41 39 39 36 36 34 33 35 33 32 31 29 33 40 44 45 43 45 48 47 47 43 44 48 47 48 48 45 43 39 36 35 39 45 42 33 29 25 22 29 45 57 53 53 63 69 67 62 59 66 80 89 90 93 97 88 70 59 61 68 79 85 83 77 68 61 54 46 39 33 28 27 28 27 24 21 19 18 17 16 16 15 14 15 16 16 17 18 20 22
46 45 43 43 41 40 41 39 37 36 34 34 31 31 35 32 30 32 34 36 40 44 46 44 46 49 48 48 45 42 42 45 50 49 43 39 34 29 33 43 48 42 37 35 33 31 32 39 48 52 59 70 74 70 66 66 71 82 92 96 100 100 87 71 66 71 78 86 88 84 78 72 66 58 47 38 31 27 26 27 28 28 26 24 22 21 20 19 19 18 17 16 15 15 15 15 17
43 43 44 43 42 41 40 38 36 34 33 31 27 32 40 34 31 37 41 41 43 46 46 44 47 50 50 49 47 45 44 45 48 47 45 44 37 30 32 44 49 46 45 46 45 44 41 43 52 60 68 74 74 71 69 73 80 90 97 100 100 99 91 83 81 84 87 90 91 87 81 76 69 57 44 35 29 25 24 24 26 28 29 28 27 26 25 22 20 18 16 16 16 16 15 14 14
47 48 50 50 49 47 43 40 37 33 32 30 25 31 40 37 36 42 45 46 48 48 46 44 45 50 52 51 48 48 47 47 49 48 48 48 43 35 34 46 52 49 52 54 53 54 53 55 61 66 72 76 75 74 75 77 83 93 101 101 100 100 98 97 97 95 95 96 95 91 86 81 71 56 44 35 28 24 22 21 22 23 24 24 23 21 19 17 17 18 19 21 23 24 24 23 19
60 61 64 66 62 55 53 54 50 41 34 30 28 30 34 37 41 47 51 50 49 48 46 43 43 47 52 53 53 51 49 50 49 49 50 50 50 45 41 49 58 57 59 58 54 57 60 62 64 67 72 78 79 78 78 78 78 84 94 98 100 101 99 101 100 98 99 99 99 97 93 89 77 58 43 33 26 22 20 19 19 19 18 18 17 17 18 20 22 24 25 26 27 30 32 29 24
71 68 66 66 63 60 63 63 55 46 39 34 32 31 30 36 47 56 59 55 51 49 46 44 43 44 49 54 56 56 55 54 48 45 45 41 45 51 49 57 69 69 65 57 49 50 56 59 61 65 70 76 80 81 80 80 77 76 85 93 99 101 100 100 100 100 101 100 101 101 99 96 82 56 38 29 23 21 19 18 18 19 21 23 23 24 25 25 24 21 20 18 19 26 32 32 30
77 70 62 63 66 65 65 61 51 41 38 36 35 30 26 38 57 67 66 61 57 53 49 47 46 46 50 52 54 58 58 56 51 46 46 43 43 48 54 67 77 69 58 49 43 43 45 49 53 56 63 70 77 81 83 84 81 79 83 85 90 98 99 99 98 97 97 97 101 102 100 99 81 50 33 27 23 23 22 22 24 27 30 31 28 23 19 16 14 12 11 10 15 24 32 35 36
73 70 67 70 72 64 55 54 50 38 35 38 40 34 27 40 63 70 67 64 62 60 57 56 55 55 56 54 55 57 54 56 61 60 65 65 51 46 60 76 75 60 49 43 39 38 38 41 46 52 59 69 79 85 86 86 85 85 84 76 75 82 85 84 84 84 85 89 98 100 99 97 74 42 32 30 27 27 28 30 34 35 32 26 19 14 11 10 10 10 9 10 14 21 27 30 33
68 73 77 83 87 79 62 51 43 35 33 37 43 43 37 44 60 66 68 68 65 65 64 63 64 62 61 59 57 57 52 54 66 76 79 67 46 48 69 79 70 54 47 44 38 35 37 42 53 66 72 75 80 83 82 82 82 84 82 72 68 73 75 75 77 78 79 82 87 91 95 88 61 37 34 33 31 31 34 39 43 40 32 21 13 11 10 11 11 10 10 10 12 15 17 20 22
75 76 78 86 92 90 76 58 44 37 36 35 37 43 44 46 52 61 71 72 67 67 64 61 59 57 59 58 57 65 63 55 65 83 81 57 43 60 78 77 67 54 49 44 37 43 56 64 70 74 75 74 75 79 83 83 82 80 77 71 68 71 74 74 73 71 70 69 71 79 86 73 50 38 38 36 35 36 38 43 46 43 35 21 13 12 12 12 12 11 10 11 13 14 14 15 17
86 81 78 83 87 83 74 62 50 43 43 43 42 45 46 47 48 55 68 74 72 68 60 51 46 46 50 51 59 80 81 69 74 83 75 58 53 66 78 78 69 58 50 41 39 59 82 91 87 75 68 68 70 77 84 84 82 76 73 72 69 67 66 66 66 64 60 58 59 64 66 56 45 44 44 43 42 40 39 42 43 44 38 25 16 15 14 15 14 13 12 13 14 15 14 14 15
82 83 79 79 83 83 74 64 55 48 50 50 49 50 52 52 53 54 61 69 71 67 59 50 43 40 41 45 60 83 89 87 88 79 66 66 65 64 68 73 70 60 52 45 52 72 82 83 79 68 64 68 71 77 81 83 83 78 75 73 66 61 57 55 59 63 60 55 53 56 58 58 58 59 59 58 57 51 48 47 45 45 41 31 25 23 22 20 18 15 15 15 15 15 15 14 14
Wind_Speed
34 34 34 34 33 33 33 33 33 32 31 30 27 27 28 29 28 28 28 28 29 29 30 31 32 32 32 31 29 28 28 27 27 26 25 24 24 24 23 22 21 21 19 19 19 20 23 24 27 29 30 32 32 33 32 29 28 25 24 24 24 24 22 20 18 16 15 15 16 17 18 19 20 20 19 18 17 16 15 14 14 14 14 13 12 12 12 12 13 13 13 13 12 12 12 12 11
34 35 35 35 34 34 34 34 35 34 32 30 27 28 29 29 28 28 29 28 28 28 29 30 31 31 30 30 29 28 28 28 27 26 26 26 26 27 27 24 21 19 18 18 19 22 24 26 29 31 32 33 33 34 34 31 28 26 25 25 25 24 22 21 19 17 15 15 16 17 18 20 20 21 20 18 17 17 15 14 14 14 14 13 13 13 13 13 14 14 13 13 12 12 12 12 12
34 35 34 35 35 35 35 35 35 34 32 29 28 30 30 29 29 29 29 29 28 28 29 30 31 30 29 30 29 29 29 29 28 28 28 29 29 30 29 25 20 18 18 20 21 24 26 28 31 32 34 34 33 34 35 31 28 26 26 26 26 24 22 21 19 17 16 15 16 18 19 20 21 21 21 19 17 17 15 14 14 15 14 14 14 13 13 14 15 14 13 13 13 12 12 13 13
34 34 34 34 35 35 35 35 35 34 31 29 29 31 30 29 30 30 30 30 29 28 29 30 30 30 29 30 30 30 30 29 30 30 30 30 29 27 25 22 20 19 21 23 24 26 29 31 32 34 35 36 34 35 35 31 27 26 26 26 25 24 22 21 19 18 16 16 17 18 20 21 22 22 22 20 18 16 15 14 15 15 14 14 15 14 13 14 15 15 14 13 12 12 12 13 13
33 32 32 33 33 33 34 34 34 32 30 29 30 31 31 31 31 31 30 30 29 29 30 30 30 30 30 30 31 31 31 31 31 31 30 28 26 23 22 21 22 22 24 25 27 29 31 32 33 35 37 37 36 36 36 30 26 26 26 26 25 23 22 21 19 17 17 17 17 19 20 21 23 23 23 22 19 16 15 15 15 16 16 14 14 14 13 14 15 15 14 13 12 11 12 13 14
34 33 32 31 31 31 32 32 32 30 29 29 30 31 32 32 31 31 30 30 29 30 31 31 31 31 30 31 31 32 32 31 31 30 28 25 23 22 21 23 24 25 27 28 30 31 33 34 35 37 38 38 38 37 34 28 25 26 26 26 25 23 22 21 19 18 18 18 18 20 21 22 23 24 24 24 20 17 15 14 15 17 16 14 14 14 14 16 17 16 15 13 11 10 10 12 14
36 35 33 32 30 30 30 29 29 28 28 29 30 32 33 32 31 31 31 31 30 31 32 31 31 31 31 31 31 32 32 31 30 29 27 24 23 22 23 24 25 27 29 30 32 33 35 36 37 38 38 38 36 33 30 26 25 26 26 25 24 23 22 21 19 19 19 19 20 21 22 23 24 25 25 25 22 18 15 14 15 17 16 13 14 15 16 17 18 17 16 14 11 9 9 11 14
36 36 34 33 32 30 28 26 26 27 27 29 31 33 33 33 32 32 32 32 32 32 32 31 31 31 31 31 30 31 30 30 29 28 27 26 24 24 25 25 26 28 29 31 33 35 36 37 38 39 39 36 31 28 27 26 25 26 26 25 24 23 21 21 20 19 19 19 20 22 23 24 25 25 25 25 23 19 15 14 15 17 16 14 15 16 15 15 16 18 18 15 10 7 8 11 14
35 35 35 34 32 31 28 25 24 25 27 29 30 32 33 34 33 33 33 32 32 32 31 31 30 31 31 30 30 30 29 28 28 27 28 27 26 27 27 28 28 30 31 32 34 36 37 38 38 37 36 31 27 26 26 25 26 26 25 25 24 22 20 20 21 20 19 20 21 22 24 25 26 26 26 25 23 19 16 15 16 16 16 16 16 15 15 15 18 21 18 15 10 7 7 10 13
35 35 34 34 33 31 28 24 23 25 27 28 28 32 34 34 33 32 32 32 32 31 31 30 30 31 31 31 30 29 27 27 28 28 28 28 28 29 29 30 31 32 33 34 35 36 37 37 36 33 29 26 25 26 26 25 26 25 25 25 23 21 21 22 22 20 19 20 21 23 24 25 26 26 26 25 22 19 17 17 17 17 17 17 17 16 15 16 19 20 16 13 10 7 7 9 13
35 34 34 34 33 31 28 24 23 24 25 26 28 32 34 34 32 31 31 32 31 31 31 30 31 32 32 32 29 28 28 28 28 29 29 29 30 30 31 32 33 33 33 34 34 35 36 36 34 29 24 24 25 25 25 25 25 25 25 25 23 22 22 22 20 19 20 21 22 23 24 25 26 27 26 24 21 19 19 19 17 18 18 19 20 19 17 17 19 19 15 13 11 8 7 9 13
35 34 34 34 33 31 28 24 23 24 25 27 29 31 33 33 31 30 31 31 31 30 31 31 32 33 34 33 30 29 28 28 29 29 29 29 30 30 30 32 32 31 31 32 32 33 33 32 30 26 24 24 25 25 25 25 26 26 26 26 25 23 22 20 19 19 20 21 22 23 25 26 26 26 25 23 21 18 20 20 18 19 19 20 23 25 21 19 21 20 15 14 12 8 7 9 13
34 34 34 34 32 30 26 22 22 24 26 27 29 31 32 31 30 30 30 31 30 30 32 32 33 34 34 33 31 30 29 29 30 29 28 29 29 29 29 30 29 29 29 30 31 31 29 27 25 24 23 24 24 25 25 25 26 26 26 26 25 23 21 20 20 20 20 21 23 24 25 26 26 26 24 22 21 19 19 20 20 22 20 20 23 24 20 18 21 20 17 15 12 9 8 10 13
33 34 34 33 31 28 23 21 22 25 27 27 29 31 31 30 30 30 31 32 31 31 33 34 34 35 34 33 30 30 29 29 29 28 28 29 28 28 29 29 29 29 29 29 29 27 25 23 23 23 24 24 25 25 25 26 26 26 26 25 24 22 20 20 20 20 21 22 23 24 25 25 25 24 23 22 22 21 19 20 22 22 21 21 21 19 17 17 20 20 18 15 12 10 9 9 12
32 32 32 32 29 25 21 21 22 25 27 26 28 31 30 30 31 31 32 33 33 34 34 34 34 34 32 31 29 30 29 28 28 27 28 28 28 28 28 30 30 30 29 27 25 23 22 22 23 23 24 25 25 26 26 26 26 26 25 24 23 22 21 20 20 20 21 22 23 24 24 25 24 23 22 22 22 22 21 20 21 21 20 21 19 17 17 18 19 19 18 15 13 12 10 9 11
31 31 31 30 27 22 20 21 22 25 26 26 28 30 30 31 32 34 35 35 35 35 35 34 34 33 32 31 29 29 28 28 28 27 28 27 28 27 27 29 29 29 27 25 23 21 22 22 23 23 24 25 26 26 26 25 25 25 25 24 23 22 21 21 21 21 21 22 23 23 24 24 23 22 22 21 21 21 20 19 18 19 19 18 16 16 18 19 19 18 17 15 14 13 12 10 11
29 29 29 28 24 19 19 20 22 25 26 26 28 31 32 33 35 36 37 38 37 36 36 35 35 34 32 30 28 28 28 29 28 27 27 28 29 27 26 27 27 27 25 23 20 20 21 22 23 24 25 26 26 25 25 25 25 25 25 24 23 22 22 21 21 21 21 22 22 23 24 23 22 21 21 20 19 19 18 16 17 17 16 15 16 18 20 19 18 17 16 16 16 15 13 12 13
28 28 28 26 20 17 19 22 24 26 27 26 29 32 33 35 36 37 38 39 39 38 37 36 35 33 30 28 27 27 29 30 29 27 28 28 29 27 26 26 26 25 24 21 20 20 21 22 24 25 26 26 25 25 24 24 24 25 25 24 24 23 22 21 21 21 21 21 21 22 22 21 20 20 19 18 18 17 16 15 16 15 15 15 17 19 19 18 16 16 17 18 18 17 15 14 14
27 27 28 22 16 16 21 24 26 28 28 28 31 33 34 36 37 38 39 40 40 39 38 36 33 32 31 30 28 28 30 30 28 27 28 29 29 28 27 27 26 25 23 21 20 21 22 23 25 26 26 26 25 25 25 25 25 25 25 24 23 22 22 21 20 20 20 20 21 21 20 20 19 19 18 17 16 15 14 14 15 14 14 14 15 16 16 16 16 17 19 20 19 18 16 15 15
27 27 26 17 14 19 23 26 29 30 30 31 32 34 36 37 39 40 41 42 41 39 38 36 34 33 33 32 30 30 32 31 27 26 28 29 29 28 28 28 26 23 22 21 21 22 23 24 26 26 26 26 26 26 25 25 25 25 24 23 22 22 20 19 19 18 19 20 20 20 19 19 18 17 17 16 14 13 12 12 12 11 10 11 13 14 15 16 17 19 20 21 20 18 15 14 15
26 26 23 16 17 22 24 28 32 33 33 33 34 35 37 39 40 42 43 43 43 41 39 37 35 35 35 34 32 33 34 30 25 26 28 29 30 29 28 27 24 21 20 20 21 22 24 26 26 26 26 27 27 27 26 25 24 23 23 22 21 19 18 17 17 18 19 20 19 19 18 18 17 17 16 14 12 11 10 10 10 9 9 11 12 14 15 17 18 19 20 20 19 16 14 13 14
26 25 22 18 19 22 26 30 34 35 35 35 36 37 39 40 41 43 44 44 44 43 40 37 36 36 36 34 34 34 31 27 25 26 28 29 30 29 27 25 21 19 19 20 21 23 25 26 26 26 27 28 28 27 25 24 23 22 21 20 18 17 16 16 17 18 20 19 19 18 17 17 17 16 15 12 10 10 10 10 9 9 10 11 13 14 16 17 18 18 18 17 16 15 13 12 13
26 24 21 19 19 24 28 32 36 38 38 38 38 38 39 40 42 43 43 43 44 43 41 38 37 36 35 34 34 32 27 25 25 26 28 31 31 29 27 24 22 20 19 21 23 24 25 26 27 27 29 29 27 26 25 24 23 21 21 19 17 16 16 16 17 19 20 18 17 16 16 17 16 15 13 11 9 10 10 10 10 10 10 12 13 14 15 15 15 16 15 15 15 14 12 10 11
25 23 21 20 21 25 30 34 38 40 40 39 39 39 39 40 43 43 42 43 43 42 41 39 37 36 35 34 34 30 26 25 25 26 28 30 30 29 27 24 23 22 22 22 24 26 27 27 29 29 28 26 26 26 27 26 24 22 21 18 16 16 16 16 18 19 18 17 15 16 17 16 15 13 11 10 10 10 10 10 10 10 11 11 12 12 12 13 14 14 14 14 14 13 10 8 9
24 22 22 22 22 26 32 35 38 41 41 40 40 39 38 40 43 42 41 42 42 41 41 39 37 35 34 34 33 29 25 25 25 27 27 25 26 26 24 24 26 25 26 26 27 29 29 29 30 28 25 23 24 25 26 26 24 22 19 16 15 15 15 17 18 18 17 15 15 16 16 15 14 12 12 11 11 11 11 10 10 10 10 9 9 10 12 13 13 13 12 12 12 10 8 7 7
23 21 22 22 22 26 32 35 37 41 42 41 41 39 36 40 43 42 41 42 41 40 40 38 37 35 35 36 33 29 26 26 26 25 23 23 25 23 22 25 28 28 29 28 30 31 30 30 28 24 21 21 21 22 22 23 21 20 18 16 15 15 16 17 17 17 16 15 15 16 15 14 13 12 12 12 12 11 10 9 9 9 7 7 8 10 11 12 12 11 11 11 10 8 7 5 5
23 21 21 21 21 24 31 33 34 38 42 42 42 39 37 41 42 40 40 40 40 40 39 38 38 37 37 35 31 28 26 25 25 23 23 22 22 22 24 28 28 28 28 26 27 30 29 28 23 21 22 20 19 17 17 19 20 19 19 17 16 15 16 17 17 16 15 15 15 15 14 13 13 13 13 12 12 10 8 8 7 6 5 6 8 10 10 11 10 9 9 8 7 6 5 5 4
23 21 20 20 20 22 27 30 31 36 40 42 43 41 40 42 41 38 38 39 39 39 38 38 38 37 35 32 29 26 24 23 23 23 26 23 21 21 21 24 26 23 21 19 21 26 26 23 20 22 22 19 18 15 14 15 18 20 19 17 16 16 16 16 16 15 15 15 15 14 13 13 14 14 13 12 11 9 7 6 5 4 4 6 7 8 9 9 8 7 7 6 5 4 4 5 5
22 21 18 18 20 20 23 26 28 33 37 39 44 45 43 42 39 38 39 40 39 39 39 38 35 33 31 30 28 27 25 24 23 24 27 26 27 26 18 13 14 14 15 14 13 16 18 17 17 19 18 17 19 18 15 14 17 19 17 16 16 16 16 16 16 15 15 15 14 13 12 13 13 12 11 10 9 8 6 5 4 4 5 6 7 8 8 7 7 6 4 2 1 2 3 4 5
21 21 18 17 19 18 20 24 27 31 33 36 42 46 46 43 39 38 40 40 39 39 37 34 30 28 29 30 28 27 27 26 25 25 27 27 28 30 26 19 13 8 10 12 12 13 16 17 17 18 18 19 21 20 17 15 16 17 14 15 16 16 16 15 15 15 15 14 13 12 12 12 10 9 8 8 8 7 6 5 5 5 5 6 7 7 7 7 6 6 4 2 1 1 3 4 5
20 21 19 17 19 18 19 25 27 28 30 34 41 45 45 44 41 41 41 40 38 36 33 30 26 26 27 27 26 26 26 26 25 23 23 23 23 24 26 24 19 12 10 12 14 14 12 13 14 18 20 19 18 16 13 13 15 15 14 15 15 16 15 15 15 15 14 13 13 12 11 10 9 8 8 8 8 7 6 5 5 5 5 6 8 7 7 6 6 6 5 4 4 4 4 5 4
20 21 19 19 20 18 20 25 26 27 29 33 39 43 43 42 43 44 44 42 39 35 31 27 26 26 25 24 23 24 25 25 22 19 17 16 16 18 21 23 21 16 13 12 14 12 9 9 15 20 19 19 18 18 18 16 16 14 14 15 15 15 15 16 15 14 14 13 13 12 11 10 10 9 8 9 9 8 7 6 5 5 5 7 8 7 7 6 6 6 6 7 7 6 6 5 4
21 22 20 20 19 18 21 23 24 26 28 31 36 41 41 39 41 44 45 44 41 37 31 27 27 27 26 24 23 23 23 21 16 14 14 10 10 12 14 16 17 17 15 14 16 17 16 17 21 21 15 18 18 19 19 17 15 14 15 15 15 16 16 16 14 14 14 13 13 12 11 11 11 10 10 10 9 8 7 6 6 5 6 7 7 7 7 6 6 6 7 8 9 8 7 6 5
22 23 21 20 19 18 21 22 24 26 27 30 35 38 38 36 38 42 45 45 43 40 36 33 31 31 29 27 24 23 21 17 13 13 12 8 5 9 9 10 11 14 16 16 19 20 19 19 21 19 11 15 15 13 15 16 14 14 16 16 16 17 17 16 15 14 14 13 13 12 12 12 11 12 11 10 10 9 8 7 7 6 7 7 7 7 7 7 7 6 6 8 9 9 8 6 5
24 24 23 21 20 19 20 21 24 27 29 31 33 36 35 33 34 37 41 44 44 43 41 40 38 37 34 30 26 23 21 15 14 14 11 7 4 7 7 8 9 11 15 17 20 20 18 16 16 16 8 10 12 12 12 13 14 15 16 17 18 18 17 16 15 14 14 13 13 12 12 12 13 12 11 10 10 11 10 9 9 8 8 8 7 8 7 7 7 7 7 7 9 9 9 7 5
26 26 25 23 21 19 19 22 25 29 31 32 33 34 33 31 31 34 37 40 41 42 42 42 42 41 38 33 27 24 22 16 15 14 10 7 3 6 8 8 8 9 11 14 16 17 15 12 13 13 6 5 9 13 12 12 15 17 16 17 18 18 17 16 16 15 14 14 13 13 13 13 13 12 11 11 11 12 11 10 10 9 9 8 8 9 8 8 8 8 7 7 9 9 9 8 7
27 28 27 26 23 19 19 22 26 29 32 32 33 34 32 30 30 32 35 38 40 40 41 41 41 40 38 34 28 25 22 18 17 14 11 9 5 6 8 7 7 8 9 10 11 12 11 9 10 11 5 4 6 9 13 15 19 18 16 17 18 18 18 17 16 15 16 15 14 13 13 13 12 11 11 11 12 13 12 11 11 10 9 9 9 10 10 9 8 8 8 8 9 9 9 9 8
27 28 28 27 24 19 19 23 26 29 32 31 30 32 30 28 29 31 33 36 38 39 39 38 36 36 34 31 27 25 22 20 18 14 11 10 7 5 7 6 5 5 7 7 7 7 7 6 7 9 6 3 5 6 10 18 23 19 15 14 15 18 19 18 17 17 17 15 14 13 12 11 10 10 11 12 13 12 11 11 11 11 11 11 11 11 10 10 9 9 9 9 9 9 9 9 9
25 25 27 27 23 21 20 22 25 28 30 28 28 30 28 25 27 29 32 34 36 36 35 33 32 31 29 27 25 25 22 19 17 14 12 10 6 5 6 6 5 4 5 5 5 4 4 4 4 6 5 2 5 6 8 17 23 20 14 10 12 17 20 19 19 19 18 16 15 13 11 10 10 10 11 12 12 12 11 11 12 12 12 12 12 11 11 10 9 9 9 9 10 10 9 9 9
23 23 25 24 22 23 22 22 24 27 27 24 25 27 25 22 24 27 30 32 32 32 31 30 30 29 27 24 24 24 21 17 15 13 11 8 6 5 5 6 6 6 5 4 4 3 2 3 2 3 3 2 5 7 9 15 19 19 16 12 13 18 21 21 21 21 19 16 14 12 11 11 11 11 11 12 12 12 12 12 13 13 13 12 12 12 11 11 10 8 9 9 10 10 9 9 9
22 21 21 20 21 23 23 24 25 27 26 22 23 25 22 20 23 25 27 28 28 30 31 29 29 29 26 25 26 25 22 18 15 12 11 9 7 6 5 7 7 7 6 4 4 4 2 2 2 2 3 4 6 8 9 13 17 17 17 15 15 19 22 22 22 21 19 16 14 13 12 12 12 12 12 13 13 13 13 14 14 13 13 12 12 12 11 10 9 8 8 8 9 9 9 9 8
19 19 18 19 21 22 23 26 27 27 25 24 24 24 21 20 23 24 24 25 26 29 30 29 29 28 26 26 27 25 21 18 16 14 14 12 9 6 6 8 8 7 7 6 5 5 4 3 4 4 4 5 7 9 10 13 16 17 17 17 19 22 23 23 23 21 19 17 15 14 14 13 13 13 13 13 13 14 14 14 14 14 13 13 12 11 10 9 8 7 7 8 8 8 9 9 9
18 18 19 20 22 23 24 27 29 27 26 26 27 26 22 20 22 22 22 24 27 29 30 28 27 26 25 25 26 23 19 17 16 15 15 13 10 7 7 9 9 8 8 7 6 6 6 4 5 6 6 6 8 10 11 13 16 18 19 21 24 26 25 24 24 22 19 18 17 16 15 14 13 13 13 13 13 13 14 13 13 14 14 13 12 11 10 9 8 8 7 8 8 9 10 10 10
19 20 22 21 22 25 27 30 30 29 28 28 27 27 25 22 22 22 21 24 29 29 26 24 23 22 21 23 22 19 18 17 16 15 14 13 11 8 8 10 10 9 8 8 7 7 7 6 6 8 8 7 8 11 12 15 17 18 21 24 26 26 25 25 23 21 20 19 18 16 15 15 15 14 13 13 13 13 13 13 13 13 13 13 12 12 11 10 9 9 8 8 8 9 10 10 10
21 23 23 23 24 27 29 31 31 30 30 28 27 28 27 23 23 23 21 25 30 27 23 22 21 19 17 18 18 18 19 17 16 17 18 16 12 9 9 10 10 9 9 8 8 8 8 7 9 10 9 8 10 13 15 16 17 18 21 24 26 26 25 24 23 22 22 20 19 17 18 18 16 15 14 14 13 13 13 12 12 12 12 12 12 12 12 11 10 10 9 9 9 9 9 9 9
23 24 24 25 26 27 29 31 31 32 33 27 25 28 27 26 25 23 22 27 31 28 24 23 21 19 17 16 17 20 20 17 17 18 19 16 11 10 10 10 9 9 9 9 8 9 9 9 10 11 10 10 12 14 16 17 17 18 21 23 25 25 25 25 25 25 24 22 20 19 19 19 17 16 15 14 13 13 13 13 13 12 12 12 11 11 11 11 11 10 10 10 10 9 9 9 9
24 24 24 25 26 26 28 30 31 34 32 24 23 28 28 28 26 22 22 28 34 29 24 23 20 18 16 15 17 21 21 18 17 18 17 13 10 10 10 10 10 9 9 9 9 9 9 10 11 11 11 11 13 15 17 16 16 18 20 21 23 25 27 28 28 27 25 23 21 20 19 18 16 15 14 14 14 13 14 15 15 15 14 13 13 11 11 11 11 11 11 11 11 11 11 10 10
24 24 25 25 26 26 29 31 32 32 27 21 24 29 30 30 27 23 23 29 33 30 25 23 19 17 17 17 18 21 21 19 19 18 16 13 12 11 10 10 10 9 8 8 7 8 9 11 12 12 12 12 13 15 15 16 17 19 19 19 22 26 29 31 30 28 25 23 22 21 20 18 16 15 15 15 15 15 15 15 16 16 16 16 15 14 14 14 14 14 14 14 14 14 13 13 13
24 25 26 26 26 27 29 30 31 30 23 21 26 29 31 32 28 24 24 28 31 29 26 24 20 18 19 20 22 23 23 22 21 20 17 16 16 14 12 12 11 9 8 7 7 8 10 12 13 13 13 13 13 14 14 15 17 19 20 21 25 28 30 30 28 27 25 24 23 22 20 17 15 15 15 16 16 16 16 15 16 16 16 16 16 15 16 15 16 16 15 15 15 15 15 15 14
25 26 26 26 26 27 28 29 30 28 23 24 28 29 32 32 30 27 26 28 29 27 27 26 23 20 19 21 24 25 26 26 25 23 21 20 20 16 15 14 12 10 9 8 8 8 10 12 13 13 13 13 14 13 14 16 17 19 21 24 26 28 29 28 26 25 25 24 24 22 19 16 15 15 15 16 17 16 16 15 15 15 15 15 15 15 15 15 15 15 14 15 15 15 14 13 12
26 27 26 25 25 26 26 27 28 27 26 29 29 29 32 33 31 28 26 28 29 27 27 28 26 24 22 22 24 25 27 29 29 27 25 24 21 18 17 16 13 11 10 10 9 9 10 13 13 14 14 14 15 15 16 18 19 20 22 24 27 29 30 29 27 25 24 24 22 20 17 14 14 15 16 17 17 16 15 14 13 13 13 13 14 14 14 14 14 14 14 14 15 15 14 12 10
28 28 28 26 24 24 25 25 25 25 27 30 30 29 31 33 32 30 27 28 28 28 29 28 28 28 26 26 26 26 28 31 34 34 32 28 23 19 19 18 14 13 12 11 11 11 12 13 14 15 16 16 17 17 18 21 22 22 23 24 26 29 31 30 29 27 26 24 22 20 18 16 15 16 17 17 16 15 14 13 12 13 13 13 13 13 13 13 14 14 14 15 16 15 14 12 10
28 28 27 26 25 24 24 24 24 24 25 28 30 29 31 33 33 32 29 28 28 29 30 30 30 29 28 27 26 27 29 31 34 36 36 30 24 21 20 17 14 13 12 12 12 13 14 15 17 17 18 18 18 17 19 22 23 23 24 24 25 27 29 29 29 28 27 26 24 23 23 20 18 18 18 16 16 15 14 13 13 13 13 13 13 13 13 13 13 13 13 14 15 15 14 12 11
27 26 25 25 25 24 23 23 22 23 24 25 27 28 31 33 34 33 31 29 29 30 30 30 30 30 29 29 28 29 30 29 29 32 33 26 21 20 19 17 15 13 12 12 13 14 15 17 19 19 19 19 18 18 18 20 21 22 23 22 21 24 26 26 27 26 25 25 25 25 24 21 20 19 18 17 17 17 15 14 14 14 14 13 13 13 12 12 12 11 11 12 12 12 13 13 13
26 25 25 24 22 22 23 23 23 22 23 24 24 26 30 32 33 33 32 30 30 31 32 31 31 32 32 32 32 33 33 31 30 33 33 25 20 20 19 17 15 13 12 13 14 16 18 20 19 19 18 16 14 14 16 18 21 23 22 19 19 20 22 23 23 22 22 23 24 25 23 21 21 20 19 19 18 18 17 16 16 16 15 14 13 13 13 12 11 11 11 11 10 11 12 13 13
26 27 27 26 23 22 23 24 23 22 22 23 23 25 28 30 33 35 34 32 30 30 32 31 31 32 33 34 34 35 37 36 32 34 36 28 23 21 20 19 16 14 14 14 16 19 21 21 18 14 13 11 11 14 17 19 21 23 21 20 19 19 20 20 19 19 19 20 21 22 22 21 21 21 20 20 19 19 18 17 17 17 16 16 15 14 14 13 11 11 12 12 11 11 12 13 13
27 28 29 29 26 25 25 25 24 23 24 24 25 25 26 27 31 34 34 34 32 30 30 30 30 31 32 33 32 33 37 36 31 36 36 29 26 24 22 21 18 17 16 16 17 17 18 19 15 11 12 13 14 16 18 20 22 22 22 21 20 19 19 18 16 15 16 17 18 19 20 21 21 21 21 21 21 21 20 18 18 18 18 17 16 15 15 14 12 13 13 13 13 13 13 13 14
29 30 30 30 28 27 27 27 26 25 25 26 26 26 25 25 28 31 33 34 33 32 31 31 31 31 32 33 30 29 32 32 34 38 33 28 29 26 22 21 21 20 20 19 16 13 13 15 15 15 18 18 17 18 20 22 23 22 22 21 20 19 18 16 15 14 14 15 16 17 17 18 19 20 21 22 23 22 21 20 20 20 20 19 18 16 16 15 14 14 14 14 14 13 13 14 14
Wind_Direction
275 275 274 274 273 273 273 274 274 274 275 275 275 273 270 269 270 270 269 268 268 268 270 271 272 272 270 270 269 267 266 264 261 261 259 257 256 259 260 261 261 266 271 273 274 274 276 281 286 289 294 298 299 304 307 303 300 296 294 296 299 303 302 298 295 294 298 303 307 311 314 317 319 321 323 326 326 323 320 316 313 314 316 323 329 331 332 333 335 337 338 338 337 333 330 325 320
273 273 273 273 273 272 272 272 273 274 274 275 272 267 267 268 268 267 267 267 266 266 268 270 271 271 269 268 265 261 260 259 257 255 255 256 254 255 259 261 263 269 275 275 274 274 277 281 283 287 292 296 299 303 306 302 297 294 292 295 298 301 299 295 293 292 296 302 306 309 312 314 316 318 321 324 323 320 317 314 313 313 315 321 325 326 328 330 331 334 337 337 337 334 330 324 320
273 272 271 271 271 271 271 271 271 272 272 270 266 263 264 263 263 263 264 264 263 263 264 266 267 267 266 263 260 256 254 254 253 252 253 254 254 256 259 263 269 273 275 274 273 275 277 279 282 286 290 293 298 301 302 299 294 291 290 292 296 297 294 292 290 290 295 300 303 306 309 311 312 314 318 321 321 318 316 313 311 311 314 319 320 318 320 324 327 329 334 335 336 334 329 323 321
273 272 271 270 269 269 269 269 269 270 268 263 258 259 259 257 257 258 260 261 261 261 261 262 262 261 260 257 256 253 250 250 249 250 252 255 258 260 262 266 270 270 270 271 272 274 276 279 282 286 288 291 296 298 298 295 290 288 287 288 292 292 289 288 287 288 293 297 300 303 305 307 309 311 314 318 320 317 314 310 307 308 312 315 317 314 314 318 321 324 328 332 334 331 328 322 319
276 273 272 270 269 268 268 268 268 267 262 257 254 254 254 253 253 254 257 258 259 258 257 258 258 258 255 253 253 250 247 248 249 252 254 257 260 262 264 265 267 267 267 268 270 272 274 278 281 283 286 289 293 294 294 290 286 284 283 285 288 286 284 284 283 286 291 295 297 300 302 304 306 309 312 315 318 317 312 308 306 309 311 312 315 314 312 315 319 321 323 327 329 329 329 322 317
279 277 275 273 271 269 268 267 266 262 255 253 251 250 250 250 249 251 254 255 255 254 254 255 255 256 254 251 251 249 248 248 249 252 254 255 257 258 261 262 264 264 265 266 267 269 272 276 278 281 284 287 290 290 289 286 282 281 281 282 283 281 281 281 280 284 289 291 294 297 299 302 304 307 311 313 315 315 311 307 307 311 314 312 314 314 310 315 319 318 318 320 322 329 332 322 315
279 279 278 276 274 272 270 268 264 257 251 250 248 247 247 247 248 249 251 252 251 251 251 252 253 253 251 250 248 246 247 247 248 250 252 253 254 254 256 259 260 262 264 266 268 271 273 275 278 281 283 286 288 285 282 280 278 279 279 280 279 278 278 279 279 282 286 288 291 295 297 300 303 306 309 310 312 312 308 304 307 311 315 314 312 311 310 314 317 316 313 311 315 330 335 322 314
278 278 278 277 276 275 273 268 260 253 248 246 244 245 245 246 248 248 249 250 249 249 250 251 253 253 251 250 246 244 244 245 247 248 251 253 254 255 256 259 261 264 267 269 270 272 274 276 279 282 283 284 283 279 278 277 276 277 277 278 276 276 279 281 281 282 285 286 289 292 295 298 301 303 306 307 308 308 304 301 304 307 309 310 308 309 309 313 316 315 312 305 307 327 335 321 313
277 276 276 276 276 276 273 266 257 248 244 242 241 242 244 247 249 248 249 250 250 250 251 251 253 253 252 251 246 243 242 243 246 248 251 252 252 253 255 258 261 263 266 268 270 272 275 277 281 283 282 279 276 274 275 274 274 274 275 274 273 276 280 279 280 282 283 284 287 290 293 296 299 301 303 304 304 303 302 300 302 304 303 304 306 308 308 314 320 318 311 303 301 322 335 320 311
275 275 275 274 274 273 270 262 253 245 240 239 238 241 245 248 249 249 249 250 250 251 251 250 250 250 250 249 245 242 240 242 245 247 249 250 249 250 252 254 256 259 262 265 269 272 275 277 280 282 278 272 271 271 271 270 271 271 271 271 272 275 274 274 278 281 281 283 285 289 292 295 298 300 301 300 300 298 299 299 298 299 298 297 299 305 314 321 325 321 313 301 299 319 334 320 308
275 274 273 273 272 270 266 258 249 243 238 236 235 240 245 247 250 249 248 250 251 249 248 247 246 247 247 247 244 242 241 243 245 246 249 250 251 251 252 254 256 259 261 264 267 270 273 274 276 276 272 269 268 268 266 267 268 268 269 270 271 271 272 275 279 280 281 282 285 289 292 295 297 298 298 297 295 294 297 296 294 297 293 291 291 293 307 321 320 315 309 299 299 314 327 316 305
274 273 272 271 269 267 263 255 246 241 235 232 234 240 243 246 249 248 248 249 248 247 246 244 243 245 246 246 244 244 245 246 248 250 252 254 256 257 257 258 259 261 261 263 266 270 273 272 269 268 266 265 264 263 264 266 267 268 269 271 272 274 277 280 281 281 282 285 288 291 293 294 295 296 296 293 291 291 295 291 289 297 293 290 296 295 296 309 312 306 301 297 298 307 317 312 302
272 271 271 270 268 265 261 251 244 238 233 232 234 239 242 245 246 245 246 246 244 242 242 242 241 244 245 246 246 248 250 252 254 256 258 261 263 264 264 264 265 263 263 264 268 272 273 267 262 262 261 260 260 262 265 267 268 270 273 275 277 279 281 282 283 284 285 287 289 291 292 293 294 294 293 290 287 286 291 286 284 293 292 289 297 297 292 300 308 303 296 295 295 300 310 308 299
270 270 269 268 267 263 257 249 243 238 235 233 234 238 240 241 240 241 242 242 239 235 236 239 240 243 244 246 250 252 254 256 258 260 262 265 267 269 271 272 272 271 269 269 270 270 266 259 256 257 257 258 260 263 266 269 271 274 277 279 281 282 283 283 284 285 286 287 288 289 290 291 292 292 290 287 286 286 287 282 283 291 290 287 288 289 291 296 299 294 291 292 291 295 304 302 294
268 267 267 267 264 259 252 246 241 238 237 235 235 237 238 237 236 237 237 236 234 232 232 235 238 242 245 247 251 253 255 258 260 263 265 268 271 273 276 278 278 277 274 271 268 262 256 253 253 254 254 257 259 262 266 270 274 278 280 282 282 283 283 283 283 283 284 285 285 287 288 289 289 290 289 287 287 288 287 283 285 288 285 283 282 283 288 287 286 286 288 289 290 293 299 296 285
267 266 266 264 262 255 245 241 238 237 237 234 234 235 235 234 233 233 233 231 230 231 231 232 236 240 243 246 249 252 255 258 261 264 268 272 274 275 278 282 283 281 274 268 262 254 249 249 250 251 253 255 258 262 268 273 279 281 282 283 283 283 282 282 282 281 281 282 284 285 286 287 288 288 288 288 288 288 288 287 285 282 279 280 281 285 287 284 283 285 287 288 290 293 295 290 278
265 265 265 263 260 250 238 235 230 231 233 232 232 232 232 231 230 230 231 230 227 229 231 233 236 238 242 245 249 253 257 259 262 266 271 274 275 277 280 284 285 279 271 264 256 248 245 246 248 249 251 254 258 265 272 278 282 283 284 284 284 282 282 281 279 278 279 280 282 284 285 285 286 287 287 287 287 286 286 285 280 275 271 273 277 283 285 283 283 284 285 287 290 292 291 286 274
264 263 263 262 256 241 231 226 221 225 229 229 229 230 230 229 228 228 229 229 226 226 229 231 234 237 241 245 249 254 258 261 263 268 272 274 276 278 279 282 282 276 268 261 251 244 242 243 245 247 250 255 261 269 275 279 282 284 285 285 284 284 283 280 277 277 278 279 280 282 283 284 285 285 285 284 284 284 285 281 277 273 267 268 275 278 279 280 281 281 284 288 290 290 287 281 273
262 260 260 259 249 231 224 220 216 219 225 226 225 227 229 228 227 227 226 227 227 225 226 229 232 235 239 243 248 252 257 261 264 269 272 274 275 276 277 278 277 272 265 259 250 244 243 244 246 248 252 257 263 270 275 278 281 284 285 285 285 285 282 278 276 277 277 278 278 279 281 283 283 281 281 283 284 286 287 283 278 275 270 268 272 274 275 277 279 283 287 289 289 286 283 277 272
260 258 258 254 237 223 216 217 215 215 221 224 223 224 227 227 227 226 225 226 228 226 227 230 232 235 238 242 247 251 256 261 266 271 272 272 272 272 273 273 273 271 265 257 249 246 245 246 248 252 256 260 263 268 272 277 281 284 285 286 285 283 279 275 275 275 274 275 276 278 279 279 278 278 281 284 287 288 288 283 277 272 270 268 268 270 271 275 281 287 289 288 286 283 280 274 267
259 257 255 245 230 218 212 218 216 213 219 222 221 222 224 226 227 227 226 225 226 227 227 230 233 237 240 243 248 251 256 263 269 271 271 271 269 268 267 267 269 269 261 253 249 247 248 250 252 255 257 259 262 266 270 277 283 285 286 285 283 278 274 272 272 271 270 271 273 275 275 274 274 278 283 286 287 286 281 275 270 270 270 269 268 268 272 279 284 286 285 284 284 282 278 271 262
259 256 253 242 228 215 213 219 215 213 218 220 221 221 222 224 226 228 228 227 227 227 227 229 234 239 242 245 249 252 258 266 268 267 268 267 266 264 261 259 262 263 253 245 244 245 248 250 252 255 256 258 262 266 271 278 282 283 283 282 277 273 269 268 267 266 266 268 269 270 269 270 275 280 283 285 285 279 272 269 269 271 271 269 269 271 276 280 282 281 282 284 285 283 278 269 259
260 255 251 241 224 212 214 217 213 214 216 217 222 222 221 223 225 229 230 230 231 230 230 232 235 240 245 248 252 255 260 265 264 263 264 265 264 259 251 250 253 255 252 244 241 242 245 249 251 252 255 259 264 269 273 277 278 278 278 276 272 267 264 263 262 263 264 264 263 262 265 271 276 279 281 281 277 270 267 269 270 271 269 268 270 273 276 277 278 280 284 287 286 285 281 272 259
259 254 250 241 224 210 214 218 215 216 214 215 223 223 221 223 226 229 229 231 234 234 235 236 239 243 248 252 256 259 260 261 262 262 262 262 265 262 253 250 253 255 255 250 244 242 244 247 249 251 256 263 270 276 277 275 274 274 272 268 265 261 259 258 259 261 260 257 257 260 266 272 274 276 276 273 269 266 267 269 269 268 265 266 270 272 273 275 279 284 288 290 290 290 285 271 256
260 254 250 242 226 210 214 221 217 217 214 214 223 224 221 224 227 228 229 231 234 236 238 239 243 246 251 256 260 262 259 258 260 261 262 262 267 268 261 256 252 250 250 248 244 240 242 244 246 250 258 269 276 276 273 271 272 272 268 262 257 255 254 255 256 255 253 252 256 262 268 271 273 272 270 269 267 267 266 265 263 260 260 264 268 268 270 276 284 290 291 294 295 294 283 263 251
262 256 253 246 231 214 216 222 219 219 217 215 221 222 221 226 228 228 229 232 234 237 239 241 246 250 256 259 263 265 259 258 258 260 266 271 273 268 265 259 246 242 243 244 244 241 239 239 244 252 260 268 270 267 265 265 268 267 261 255 250 249 250 250 250 248 248 252 258 264 268 270 270 268 268 268 267 266 262 257 252 252 256 258 259 262 270 282 293 297 296 297 296 290 276 249 238
262 256 253 250 238 221 218 222 221 221 220 218 220 219 222 229 230 230 231 234 237 239 241 245 250 255 259 263 267 270 266 261 258 260 262 271 283 272 258 253 242 241 244 244 246 245 242 239 244 253 256 261 264 268 272 267 262 257 252 248 245 245 246 244 243 245 249 255 260 264 267 267 267 267 268 267 264 261 254 246 240 241 246 249 255 263 276 292 303 307 302 298 293 282 255 225 231
262 258 254 251 244 229 222 224 224 225 225 222 222 220 223 230 232 232 234 236 239 242 245 249 253 257 262 267 272 273 272 266 259 262 258 259 279 273 247 233 227 230 236 239 243 243 242 243 247 254 255 258 265 275 280 268 257 256 253 244 240 240 239 240 241 245 250 255 260 262 264 265 267 269 266 261 256 247 236 228 223 224 235 247 260 270 285 299 308 313 305 296 287 261 227 220 242
263 261 256 251 248 238 228 227 226 228 228 227 228 225 224 229 234 235 237 240 242 244 248 251 255 259 265 270 274 274 272 268 261 265 268 268 276 272 257 237 227 214 210 224 242 239 241 251 259 266 267 265 270 274 270 260 253 256 253 237 233 234 234 238 240 243 249 253 257 259 261 265 267 265 255 246 238 228 218 208 211 224 237 252 265 276 290 297 303 312 301 281 261 230 226 241 256
260 260 257 250 248 243 234 230 227 227 228 229 233 232 227 227 233 237 239 241 243 246 248 251 256 262 267 271 275 277 273 269 265 268 278 282 281 274 272 278 279 255 223 240 270 271 267 270 272 274 274 276 280 274 260 251 248 251 245 227 225 229 231 234 236 241 246 250 254 255 257 261 257 244 231 225 221 217 210 204 216 226 236 254 265 276 288 290 291 298 281 223 192 268 268 267 272
255 256 255 247 243 239 234 232 229 227 227 228 233 236 232 229 232 237 239 241 242 244 247 249 255 260 266 271 276 278 275 271 270 273 279 282 286 285 286 291 292 287 275 274 280 284 286 284 290 289 274 273 280 266 253 248 243 242 232 219 220 224 225 228 230 235 242 247 251 251 253 250 236 221 214 215 217 213 207 209 221 226 235 252 262 270 281 286 284 282 267 236 246 284 279 274 281
253 254 253 247 240 233 231 234 232 230 228 228 232 237 235 231 233 237 238 241 242 242 244 246 250 253 259 268 275 275 273 271 270 271 272 281 301 303 298 301 304 301 295 288 277 276 293 295 312 313 280 265 270 261 258 251 237 232 221 214 215 217 219 221 225 232 240 244 244 245 246 239 227 218 213 214 218 214 208 213 223 229 242 252 260 264 271 281 278 271 264 253 260 275 272 277 285
252 253 251 248 244 233 231 235 236 233 232 232 234 237 237 233 234 237 238 241 243 243 244 245 247 248 253 266 276 273 269 267 263 259 260 276 330 331 306 302 309 309 301 294 280 278 294 298 311 321 289 259 264 260 250 235 226 225 212 206 208 210 214 219 225 232 236 237 237 239 235 230 226 221 216 215 219 219 215 221 227 233 246 253 260 260 263 272 271 266 263 261 265 268 267 276 284
251 252 250 249 246 236 231 236 238 236 234 235 238 239 239 236 236 240 242 243 244 244 244 245 247 247 254 266 272 268 263 257 248 248 253 262 339 1 334 316 311 305 300 296 287 289 305 312 318 329 300 254 251 243 229 217 219 216 199 196 202 207 214 220 225 228 230 232 230 226 219 220 224 219 217 220 224 225 224 230 232 234 243 251 259 261 258 261 263 263 261 264 266 264 265 269 268
248 251 251 248 244 237 231 232 236 237 235 236 239 241 241 238 237 241 244 246 247 246 245 245 247 248 255 264 265 259 254 243 237 243 247 251 318 358 350 341 325 304 297 293 292 302 318 325 328 337 314 249 234 222 216 215 213 199 189 194 202 210 217 220 221 223 224 223 215 210 208 215 221 217 215 220 228 231 230 235 238 237 241 248 256 259 256 251 251 255 255 263 266 263 263 263 254
246 248 250 248 243 238 234 233 235 237 236 235 238 241 242 240 238 239 244 247 248 249 248 247 248 250 256 261 258 252 246 234 231 237 238 239 290 345 340 340 333 321 312 300 300 314 328 326 326 335 323 240 230 221 217 210 196 188 189 197 206 214 218 216 217 218 213 207 203 203 206 215 222 220 216 219 230 236 237 240 242 243 247 251 254 257 257 249 243 246 251 259 263 262 262 259 253
247 246 247 247 244 237 236 238 238 239 240 238 239 242 242 241 240 241 244 248 250 252 252 252 253 255 258 259 253 247 241 228 225 230 234 239 257 325 333 335 335 336 333 319 312 324 337 328 322 332 322 243 236 227 222 206 186 183 193 202 210 214 213 212 211 208 202 199 202 207 212 220 226 226 224 223 227 234 238 241 243 247 251 254 254 256 260 256 246 243 248 255 260 262 261 259 255
248 247 245 246 246 238 236 241 241 242 244 241 243 245 244 242 241 244 246 249 252 253 254 255 256 257 256 254 249 243 237 226 222 226 236 242 248 293 318 329 340 338 332 326 321 330 340 330 323 330 327 268 245 230 219 204 190 190 199 206 213 209 206 207 204 200 198 201 207 212 216 223 228 231 230 227 226 228 232 237 244 249 250 251 251 251 256 258 252 245 248 254 257 258 257 259 258
248 248 245 244 246 239 234 241 245 246 247 245 245 248 245 241 241 243 245 248 251 253 255 255 252 251 249 247 246 242 236 227 221 227 241 243 241 270 297 311 331 329 316 318 317 324 336 328 326 320 321 297 242 224 213 208 205 210 217 225 226 209 202 202 198 196 198 204 209 211 216 220 222 224 226 228 228 227 229 234 242 246 247 249 249 249 250 255 256 249 249 255 259 259 257 258 259
249 250 247 242 244 242 234 239 246 248 250 247 245 247 244 239 238 240 243 246 250 252 253 250 246 245 243 239 237 233 228 221 218 228 241 240 234 254 282 294 310 311 295 302 307 302 312 307 316 305 290 259 232 225 214 213 219 227 234 242 233 211 203 200 197 199 202 206 208 208 211 214 215 217 220 226 228 229 229 232 237 240 243 245 247 248 247 251 253 250 251 257 263 263 260 259 260
250 252 252 243 240 242 237 238 243 246 250 248 245 246 239 232 234 238 243 246 247 249 250 248 245 243 239 231 228 228 224 214 211 220 229 230 228 240 273 287 297 300 279 276 288 275 261 265 262 252 241 230 229 231 224 221 224 228 235 239 223 208 204 201 200 202 203 203 204 205 207 209 212 213 216 220 223 227 227 228 230 232 236 239 242 245 246 248 248 246 249 255 261 260 258 259 258
251 253 253 243 236 238 237 238 241 242 247 246 244 244 235 228 233 237 241 243 243 245 246 244 244 243 237 230 230 233 227 215 214 220 222 221 220 231 268 281 290 293 267 261 276 264 249 244 239 223 217 224 227 230 234 232 223 219 227 226 211 204 204 201 200 201 199 199 201 205 206 209 211 212 215 217 220 224 226 227 227 226 229 232 235 240 243 244 244 241 239 242 246 247 250 254 254
250 248 246 239 233 234 237 239 240 238 238 241 244 247 238 229 234 237 236 238 239 238 238 238 240 241 235 228 230 232 223 214 218 224 222 219 216 229 260 275 288 289 262 256 264 253 245 242 234 220 215 220 224 227 231 229 217 212 219 218 208 205 203 199 199 197 195 199 205 209 212 214 215 215 217 219 220 223 225 227 228 228 228 228 230 234 236 239 238 237 235 235 235 237 242 247 251
242 241 240 235 231 231 233 237 239 236 234 236 241 247 245 234 233 237 235 232 230 229 229 231 236 240 237 231 228 222 214 213 215 213 211 217 220 232 255 272 286 281 255 252 253 241 238 238 228 220 219 217 218 223 223 220 214 211 216 215 212 210 203 198 198 198 198 204 212 220 226 225 222 220 222 223 223 224 225 227 230 232 232 231 231 230 232 235 236 235 235 235 236 238 242 245 250
239 238 236 234 230 230 232 236 239 240 238 235 236 244 248 242 237 238 236 226 220 219 223 226 230 236 236 235 226 209 205 211 212 207 205 213 223 235 255 271 280 270 249 247 243 231 231 232 225 222 222 218 214 219 221 220 219 218 219 217 216 213 204 197 199 201 205 212 220 228 232 230 226 225 227 227 226 226 226 226 227 232 234 236 235 233 232 233 235 236 236 236 236 239 242 246 252
239 240 239 237 235 234 235 238 239 241 241 237 237 242 246 246 242 239 234 220 213 216 224 224 225 229 230 233 224 208 206 211 215 215 215 217 225 239 257 269 270 262 249 242 232 227 227 224 221 223 223 218 214 216 221 223 223 225 225 223 221 214 202 198 201 205 211 220 226 230 231 231 230 229 230 230 228 227 228 226 225 226 228 230 234 236 236 235 236 236 237 238 240 241 242 244 249
240 242 243 242 241 240 240 242 241 242 243 240 239 241 242 243 241 238 231 217 211 218 227 224 222 227 226 227 223 213 211 215 219 227 230 232 239 248 258 265 264 259 247 236 229 227 225 220 220 224 223 217 214 216 222 224 225 227 226 225 222 212 201 201 205 209 216 224 230 232 232 232 232 232 233 233 231 227 227 227 225 224 224 226 229 233 238 242 244 245 245 246 248 249 250 250 252
243 244 245 245 244 242 242 244 244 245 245 238 236 236 236 240 240 235 228 217 214 220 224 219 216 219 218 217 221 221 222 222 224 232 240 248 255 257 260 261 260 254 239 229 228 227 224 222 222 222 218 212 210 214 219 222 223 225 224 221 218 211 206 207 211 214 221 227 232 233 233 233 234 234 233 231 228 224 223 223 223 224 225 227 229 233 238 243 247 250 253 255 256 258 259 260 260
245 245 245 244 243 242 242 244 245 248 245 234 233 231 229 236 239 232 225 219 219 222 221 217 215 216 214 213 216 222 229 231 231 237 245 251 254 256 260 261 254 244 233 225 226 228 225 223 219 214 208 205 206 209 213 218 221 221 219 215 214 214 212 213 216 221 226 231 232 231 230 231 233 232 229 225 222 220 219 218 218 221 224 228 231 235 239 243 248 251 254 256 258 259 261 262 263
242 242 242 241 240 241 243 246 248 249 242 234 235 229 226 233 237 232 225 220 221 223 221 218 218 217 217 217 218 222 228 232 236 240 241 243 247 250 256 257 247 236 234 232 233 231 222 216 212 208 204 204 204 206 211 218 220 219 217 214 215 217 217 218 221 226 228 228 227 226 226 229 232 231 227 223 220 218 217 217 218 221 225 230 234 238 242 245 249 252 255 257 259 259 261 262 261
236 237 237 238 240 242 244 246 247 247 242 237 236 230 226 230 234 234 227 220 222 225 224 224 223 222 220 220 223 226 228 231 235 235 233 234 237 242 248 249 242 236 237 240 240 233 218 212 211 208 206 204 204 206 212 219 222 221 220 217 217 220 223 226 230 231 230 227 227 229 232 236 239 234 227 222 220 219 218 216 220 225 229 233 236 239 243 246 249 253 257 260 261 261 261 260 256
237 239 241 242 243 244 243 244 245 246 244 240 237 231 227 229 232 233 230 223 222 225 229 231 231 230 228 225 226 230 231 234 232 223 219 221 222 230 240 243 243 243 243 243 240 234 222 215 212 209 206 203 203 206 212 219 223 222 223 222 220 223 228 233 236 238 239 240 241 242 245 248 246 236 225 220 220 221 221 217 219 225 229 233 235 237 241 247 252 255 257 259 260 258 255 250 246
237 242 246 246 244 241 241 243 245 246 245 243 239 232 226 227 230 232 232 227 223 225 230 233 236 237 237 235 235 235 238 246 241 222 209 203 203 215 230 239 248 249 243 240 237 234 229 222 218 214 211 209 209 210 212 218 224 223 224 227 226 227 232 237 240 243 246 250 249 247 249 249 243 232 223 219 220 223 224 222 221 223 226 230 235 240 243 246 250 252 255 258 256 251 246 240 238
236 240 242 240 240 240 241 245 248 246 244 242 238 232 226 225 228 231 233 231 226 226 229 233 237 239 241 244 248 249 248 253 252 232 210 199 202 215 225 234 244 244 236 235 236 235 232 229 224 220 217 217 217 217 216 219 225 228 231 236 236 236 239 243 245 247 249 250 249 246 245 241 232 226 220 217 220 223 225 226 227 227 228 230 235 239 242 243 245 250 254 254 248 241 237 234 236
235 234 232 232 236 241 243 247 250 250 248 244 239 233 227 226 229 231 234 234 230 229 230 233 238 240 244 247 250 255 252 248 246 229 211 208 217 219 222 229 234 236 233 232 235 236 233 229 226 224 224 224 226 229 228 226 227 230 235 240 241 240 242 244 246 247 247 247 244 239 235 228 222 221 218 217 221 224 226 228 230 232 232 232 233 235 239 241 242 248 250 247 244 241 239 237 236
232 230 228 227 229 235 239 244 248 247 247 248 243 237 232 230 231 232 235 237 235 234 233 236 240 242 246 247 250 254 249 241 233 215 204 212 218 211 215 223 227 234 232 229 237 240 236 230 226 231 241 242 241 238 233 229 228 229 231 234 235 234 235 238 240 241 242 240 235 229 223 217 216 220 220 221 224 227 228 229 232 235 234 232 231 232 237 240 241 246 246 244 247 251 248 243 241
227 228 228 227 228 231 235 240 243 241 241 244 245 243 239 235 234 235 238 240 241 242 242 244 247 247 248 248 253 256 247 237 219 200 201 216 215 205 210 218 225 234 231 230 241 246 241 235 233 250 267 263 248 233 227 227 228 228 228 229 230 230 231 234 235 237 236 231 224 218 214 212 216 222 224 225 228 229 229 231 233 235 235 232 232 234 237 240 243 245 246 247 252 255 251 247 246
224 226 226 226 228 230 233 238 241 241 241 242 246 247 245 242 240 240 241 243 245 247 249 253 256 257 256 252 256 258 243 223 200 191 200 217 215 207 209 216 225 231 230 233 245 255 254 249 252 263 268 264 251 234 227 228 229 229 230 230 230 231 234 238 238 234 230 223 216 212 211 216 223 229 231 232 232 232 230 231 232 235 235 234 234 237 240 243 246 247 248 250 254 254 251 249 250